Date String (YYYY-MM-DD hh:mm:ss) UTC,Instrument flags,Ambient pressure (hPa),Sample flow (lpm),Bypass flow (lpm),Sample temperature (°C),Ambient temperature (°C),ASC tube jacket temperature (°C),LED temperature (°C),Box temperature (°C),Sample RH (%),Span deviation,Mass concentration (μg/m³),Mass concentration (μg/m³),Mass concentration (μg/m³)
DateTimeUTC,F1_M11,P_M11,Q1_M11,Q2_M11,T1_M11,T2_M11,T3_M11,T4_M11,T5_M11,U1_M11,ZSPAN_M11,X0_M11,X2_M11,X1_M11
2022-07-08 17:00:00,,0833.0,5.00,0.00,29.5,27.9,00.0,38.3,31.4,34.5,0000.0,0012.81,0004.96,0004.18
2022-07-08 17:01:00,,0833.0,5.00,0.00,29.5,28.1,00.0,38.3,31.4,34.5,0000.0,0012.78,0005.00,0004.19
2022-07-08 17:02:00,,0833.1,5.00,0.00,29.6,28.2,00.0,38.3,31.4,34.2,0000.0,0013.31,0005.02,0004.21
2022-07-08 17:03:00,,0833.0,5.00,0.00,29.6,28.3,00.0,38.3,31.5,34.2,0000.0,0013.21,0005.05,0004.22
2022-07-08 17:04:00,,0833.0,5.00,0.00,29.6,28.4,00.0,38.3,31.5,34.6,0000.0,0013.14,0005.08,0004.21
2022-07-08 17:05:00,,0833.0,5.00,0.00,29.7,28.0,00.0,38.3,31.5,34.3,0000.0,0012.15,0005.05,0004.22
2022-07-08 17:06:00,,0833.0,5.00,0.00,29.6,27.5,00.0,38.2,31.4,34.5,0000.0,0012.15,0005.01,0004.21
2022-07-08 17:07:00,,0833.0,5.00,0.00,29.6,27.2,00.0,38.2,31.4,34.2,0000.0,0011.88,0005.00,0004.21
2022-07-08 17:08:00,,0833.0,5.00,0.00,29.5,27.2,00.0,38.2,31.2,34.3,0000.0,0011.38,0004.95,0004.20
2022-07-08 17:09:00,,0833.1,5.00,0.00,29.5,27.3,00.0,38.2,31.2,34.9,0000.0,0011.61,0004.93,0004.18
2022-07-08 17:10:00,,0833.0,5.02,0.00,29.5,27.5,00.0,38.2,31.3,34.8,0000.0,0011.92,0004.91,0004.16
2022-07-08 17:11:00,,0833.0,4.99,0.00,29.5,27.7,00.0,38.2,31.3,34.7,0000.0,0011.81,0004.88,0004.15
2022-07-08 17:12:00,,0833.0,5.00,0.00,29.5,27.8,00.0,38.2,31.3,34.6,0000.0,0012.24,0004.86,0004.14
2022-07-08 17:13:00,,0832.9,5.00,0.00,29.6,28.0,00.0,38.2,31.4,34.2,0000.0,0011.62,0004.84,0004.12
2022-07-08 17:14:00,,0832.8,5.00,0.00,29.6,28.1,00.0,38.2,31.4,34.2,0000.0,0011.84,0004.82,0004.11
2022-07-08 17:15:00,,0832.9,5.00,0.00,29.6,28.2,00.0,38.3,31.5,34.5,0000.0,0011.81,0004.85,0004.13
2022-07-08 17:16:00,,0832.9,5.00,0.00,29.6,28.3,00.0,38.3,31.5,34.8,0000.0,0011.47,0004.89,0004.14
2022-07-08 17:17:00,,0832.9,5.00,0.00,29.7,27.8,00.0,38.2,31.5,34.8,0000.0,0010.50,0004.90,0004.15
2022-07-08 17:18:00,,0832.8,4.99,0.00,29.7,27.3,00.0,38.2,31.4,35.2,0000.0,0010.56,0004.92,0004.16
2022-07-08 17:19:00,,0832.8,5.00,0.00,29.8,27.1,00.0,38.2,31.5,34.7,0000.0,0011.36,0004.98,0004.18
2022-07-08 17:20:00,,0832.8,4.99,0.00,29.9,27.2,00.0,38.2,31.4,34.6,0000.0,0011.79,0005.02,0004.20
2022-07-08 17:21:00,,0832.8,5.00,0.00,30.0,27.3,00.0,38.2,31.4,34.4,0000.0,0012.03,0005.06,0004.21
2022-07-08 17:22:00,,0832.8,5.00,0.00,30.0,27.5,00.0,38.2,31.4,34.3,0000.0,0013.21,0005.12,0004.22
2022-07-08 17:23:00,,0832.8,5.00,0.00,30.0,27.7,00.0,38.3,31.4,34.3,0000.0,0013.15,0005.14,0004.23
2022-07-08 17:24:00,,0832.8,5.01,0.00,30.0,27.9,00.0,38.3,31.4,34.0,0000.0,0013.18,0005.16,0004.25
2022-07-08 17:25:00,,0832.8,5.01,0.00,30.1,28.0,00.0,38.4,31.5,34.1,0000.0,0013.08,0005.18,0004.26
2022-07-08 17:26:00,,0832.7,5.00,0.00,30.1,28.2,00.0,38.4,31.5,34.1,0000.0,0013.17,0005.22,0004.28
2022-07-08 17:27:00,,0832.7,5.01,0.00,30.1,28.3,00.0,38.4,31.6,34.2,0000.0,0013.24,0005.24,0004.29
2022-07-08 17:28:00,,0832.7,5.01,0.00,30.1,28.2,00.0,38.5,31.6,34.2,0000.0,0013.41,0005.29,0004.30
2022-07-08 17:29:00,,0832.8,4.98,0.00,30.1,27.6,00.0,38.4,31.5,34.1,0000.0,0013.79,0005.33,0004.31
2022-07-08 17:30:00,,0832.8,5.00,0.00,30.1,27.2,00.0,38.4,31.5,34.3,-001.7,0014.34,0005.30,0004.32
2022-07-08 17:31:00,,0832.8,5.00,0.00,30.0,27.2,00.0,38.4,31.4,34.6,-001.5,0014.00,0005.31,0004.32
2022-07-08 17:32:00,,0832.8,5.00,0.00,29.9,27.3,00.0,38.4,31.3,34.5,-000.9,0013.55,0005.32,0004.34
2022-07-08 17:33:00,,0832.7,4.99,0.00,29.9,27.4,00.0,38.4,31.3,34.9,-001.4,0013.37,0005.30,0004.34
2022-07-08 17:34:00,,0832.7,4.99,0.00,29.9,27.6,00.0,38.4,31.4,35.3,-001.3,0013.81,0005.28,0004.35
2022-07-08 17:35:00,,0832.7,5.00,0.00,30.2,27.8,00.0,38.4,31.6,34.9,-001.3,0014.14,0005.24,0004.34
2022-07-08 17:36:00,,0832.7,5.01,0.00,30.4,27.9,00.0,38.4,31.7,34.1,-000.8,0014.06,0005.25,0004.33
2022-07-08 17:37:00,,0832.8,4.99,0.00,30.6,28.1,00.0,38.5,31.7,33.0,0000.0,0014.94,0005.23,0004.32
2022-07-08 17:38:00,,0832.7,5.00,0.00,30.6,28.2,00.0,38.5,31.7,33.1,0000.0,0015.18,0005.22,0004.32
2022-07-08 17:39:00,,0832.7,5.01,0.00,30.7,28.2,00.0,38.6,31.7,33.2,0000.0,0015.09,0005.17,0004.32
2022-07-08 17:40:00,,0832.7,5.01,0.00,30.7,27.8,00.0,38.6,31.7,33.2,0000.0,0015.35,0005.15,0004.31
2022-07-08 17:41:00,,0832.7,5.00,0.00,30.7,27.3,00.0,38.6,31.6,33.1,0000.0,0014.31,0005.20,0004.30
2022-07-08 17:42:00,,0832.7,5.00,0.00,30.6,27.2,00.0,38.6,31.6,33.2,0000.0,0014.17,0005.22,0004.32
2022-07-08 17:43:00,,0832.7,5.00,0.00,30.5,27.3,00.0,38.7,31.5,33.2,0000.0,0014.94,0005.23,0004.32
2022-07-08 17:44:00,,0832.7,5.00,0.00,30.5,27.4,00.0,38.7,31.5,33.4,0000.0,0014.35,0005.27,0004.32
2022-07-08 17:45:00,,0832.7,5.01,0.00,30.4,27.6,00.0,38.7,31.5,32.8,0000.0,0013.56,0005.30,0004.31
2022-07-08 17:46:00,,0832.7,5.01,0.00,30.4,27.8,00.0,38.7,31.5,32.9,0000.0,0013.87,0005.35,0004.33
2022-07-08 17:47:00,,0832.7,5.00,0.00,30.4,27.9,00.0,38.7,31.6,33.3,0000.0,0013.93,0005.36,0004.33
2022-07-08 17:48:00,,0832.7,5.00,0.00,30.4,28.1,00.0,38.8,31.6,33.9,0000.0,0012.84,0005.36,0004.34
2022-07-08 17:49:00,,0832.7,4.99,0.00,30.4,28.2,00.0,38.8,31.7,33.9,0000.0,0013.00,0005.34,0004.36
2022-07-08 17:50:00,,0832.7,5.01,0.00,30.4,28.3,00.0,38.8,31.7,33.7,0000.0,0013.75,0005.37,0004.37
2022-07-08 17:51:00,,0832.7,5.01,0.00,30.4,27.9,00.0,38.7,31.7,33.4,0000.0,0013.67,0005.37,0004.40
2022-07-08 17:52:00,,0832.7,5.01,0.00,30.3,27.3,00.0,38.7,31.6,33.3,0000.0,0013.43,0005.37,0004.43
2022-07-08 17:53:00,,0832.7,4.99,0.00,30.3,27.2,00.0,38.7,31.5,33.4,0000.0,0013.79,0005.37,0004.44
2022-07-08 17:54:00,,0832.7,4.99,0.00,30.2,27.2,00.0,38.7,31.4,33.9,0000.0,0013.57,0005.36,0004.42
2022-07-08 17:55:00,,0832.7,5.00,0.00,30.1,27.3,00.0,38.7,31.4,33.9,0000.0,0013.49,0005.36,0004.43
2022-07-08 17:56:00,,0832.7,5.00,0.00,30.1,27.5,00.0,38.6,31.4,33.7,0000.0,0013.34,0005.32,0004.42
2022-07-08 17:57:00,,0832.7,5.00,0.00,30.0,27.7,00.0,38.6,31.5,33.7,0000.0,0013.01,0005.28,0004.41
2022-07-08 17:58:00,,0832.7,5.00,0.00,30.0,27.9,00.0,38.6,31.5,33.2,0000.0,0012.92,0005.26,0004.40
2022-07-08 17:59:00,,0832.6,5.00,0.00,30.0,28.0,00.0,38.6,31.5,33.7,0000.0,0013.26,0005.24,0004.40
